User: anonymous   Login
Location: Ottawa
(45.4170°N, 75.7000°W)
Time: 03:37:26
(UTC-04:00)
Language:

Aureole 3 Rocket - Orbit

View from above orbital plane
View from above orbital plane
View from above satellite
View from above satellite

Ground track
Ground track

The orbit data is extracted from the following two-line orbital elements,

1 12849U 81094B   17296.83964538 +.00000374 +00000-0 +30336-4 0  9990
2 12849 082.4930 068.0169 0903927 069.1346 300.4134 13.50248361759303
Epoch (UTC): 23 October 2017 20:09:05
Eccentricity: 0.0903927
inclination: 82.4930°
perigee height: 398 km
apogee height: 1745 km
right ascension of ascending node: 68.0169°
argument of perigee: 69.1346°
revolutions per day: 13.50248361
mean anomaly at epoch: 300.4134°
orbit number at epoch: 75930

The dashed part of the orbit path shows where the satellite is in the earth's shadow,  

DLR